Regional Weather Roundup
Issued by NWS Lake Charles, LA

Home | Current Version | Previous Version | Text Only | Print | Product List | Glossary On
Versions: 1 2 3 4 5 6 7 8 9 10 11 12 13 14 15 16 17 18 19 20 21 22 23 24 25 26 27 28 29 30 31 32 33 34 35 36 37 38 39 40 41 42 43 44 45 46 47 48 49 50
000
ASUS44 KLCH 222010
RWRLCH
REGIONAL WEATHER ROUNDUP
NATIONAL WEATHER SERVICE LAKE CHARLES LA
200 PM CST SUN JAN 22 2017

Note: "fair" indicates few or no clouds below 12,000 feet with no
significant weather and/or obstructions to visibility.


ACROSS SOUTHEAST TEXAS

CITY           SKY/WX    TMP DP  RH WIND       PRES   REMARKS
BEAUMONT       SUNNY     70  43  37 W21G28    29.53F
BEAUMONT CITY  FAIR      69  43  38 NW28G35   29.55S
ORANGE         CLEAR     67  43  41 NW12G25   29.54F
JASPER         MOSUNNY   67  45  45 W18G26    29.54R
$$

ACROSS CENTRAL LOUISIANA

CITY           SKY/WX    TMP DP  RH WIND       PRES   REMARKS
LEESVILLE      SUNNY     64  41  42 W22G32    29.46F
FULLERTON      FAIR      66  40  38 VRB5G18   29.43F
ALEXANDRIA INT SUNNY     63  41  44 W20       29.41
ESLER FIELD    SUNNY     66  41  40 W17G24    29.41F
DERIDDER       FAIR      65  40  40 W17G29    29.50S
OAKDALE        CLEAR     65  40  41 W12G21    29.46F
OPELOUSAS      FAIR      62  40  44 W15G26    29.47F
$$

ACROSS SOUTHWEST AND SOUTH CENTRAL LOUISIANA

CITY           SKY/WX    TMP DP  RH WIND       PRES   REMARKS
SULPHUR        CLEAR     68  44  42 W22G30    29.52F
LAKE CHARLES   MOSUNNY   66  43  43 NW18G29   29.51F
CHENNAULT INT    N/A     64  41  42 NW21G29   29.50F
CAMERON PHI    NOT AVBL
DEQUINCY       FAIR      65  43  43 W14G23    29.51F
JENNINGS       FAIR      64  43  45 W18G29    29.78S
LAFAYETTE      CLOUDY    66  39  37 W20G31    29.49S
NEW IBERIA     LGT RAIN  65  38  36 W23G31    29.49S
ABBEVILLE      FAIR      64  39  39 W25G32    29.50S
PATTERSON      CLOUDY    64  41  42 W20G35    29.49F
SALT POINT     NOT AVBL
$$

SELECTED SITES ACROSS THE REGION

CITY           SKY/WX    TMP DP  RH WIND       PRES   REMARKS
HOUSTON BUSH   MOSUNNY   67  45  45 NW24G41   29.62R
HOUSTON HOBBY  MOSUNNY   70  42  36 NW29G43   29.61S
GALVESTON      SUNNY     72  45  37 W28G39    29.61S
COLLEGE STAT   MOSUNNY   64  45  49 NW29G38   29.70R
CONROE         MOSUNNY   66  45  46 NW21G36   29.62R
HUNTSVILLE     PTSUNNY   63  44  50 NW22G38   29.65R
LUFKIN         PTSUNNY   61  45  55 NW18G39   29.57R
SHREVEPORT     CLOUDY    62  42  47 W25G32    29.45R
MONROE         CLOUDY    64  42  44 W15G25    29.37F
NATCHEZ MS     SUNNY     63  41  45 SW20G26   29.39S
BATON ROUGE    LGT RAIN  62  39  42 W21G36    29.46R
N.O. INTL ARPT MOSUNNY   66  40  38 W24G33    29.44S
SLIDELL        MOSUNNY   67  37  33 W14G28    29.41S
$$

MARINE REPORTS

STATION/POSITION TIME  SKY/WX   TEMP    WIND        PRES    VSBY
                                AIR SEA DIR/SP/G
                 (UTC)          (F)     (DEG/KT/KT) (MB)    (MI)
BUOY 30 S HIGH I 1850            65 65  290/ 29/ 35 1001.3
WVE H/P(F/S)=  7/ 7

SEA RIM ST PARK  2000            68     300/ 18/ 24 1001.3F
PORT ARTHUR      1948               64  300/ 17/ 30 1000.1F
SABINE PASS N    1948            67 68  280/ 14/ 23 1001.7F
TEXAS POINT      NOT AVBL
CALCASIEU PASS   1948            65 66  290/ 23/ 29   N/A
LK CHARLES BEACH 1948            64 64               999.3F
MARSH ISLAND     NOT AVBL
FRESH WATER LOCK 1948            65 69  250/ 25/ 33  999.9R
AMERADA PASS     1948            62 58  230/ 10/ 16  998.9F
$$



USA.gov is the U.S. government's official web portal to all federal, state and local government web resources and services.